sat.trackr.live / text

‹ back to catalog

STARLINK-36416

NORAD 67630 · 2026-020P

PAYLOAD ACTIVE UNKNOWN

§ Identity

Operator
Country
US
Launch date
2026-01-30
Launch site
AFETR
Launch vehicle
Mass (kg)
RCS (m²)

Purposes: comms

External: N2YO · Heavens-Above · Gunter

§ Orbital elements

Epoch: 2026-08-15T14:05:18.160800Z

Period
88.72 min
Inclination
42.9954°
Eccentricity
0.0005937
Mean motion
16.22993384 rev/d
Perigee alt
207.5 km
Apogee alt
215.3 km
Semi-major
6,589.6 km
B*
3.4220e-3
RAAN
314.5807°
Arg perigee
318.9679°
Mean anomaly
41.0761°
Rev number
640

§ Raw data

STARLINK-364161 67630U 26020P   26227.58701575  .08844475  90301-5  34220-2 0  99902 67630  42.9954 314.5807 0005937 318.9679  41.0761 16.22993384  6408

JSON: /api/v1/satellites/67630 · /tle

For live sub-satellite position, see the globe view (requires WebGL).

§ Visibility from observer

Set your observer location to see the next 7 days of passes ≥ 10°. The values pass through the URL so the page stays shareable.

No JS? Fill the form by hand. The geolocation button needs JavaScript.